Regional Weather Roundup
Issued by NWS

Home | Current Version | Previous Version | Graphics & Text | Print | Product List | Glossary On
Versions: 1 2 3 4 5 6 7 8 9 10 11 12 13 14 15 16 17 18 19 20 21 22 23 24 25 26 27 28 29 30 31 32 33 34 35 36 37 38 39 40 41 42 43 44 45 46 47 48 49 50
000
ASUS43 KMKX 221710
RWRWI

WISCONSIN REGIONAL WEATHER ROUNDUP
NATIONAL WEATHER SERVICE MILWAUKEE/SULLIVAN WI
1100 AM CST SUN JAN 22 2017

NOTE: "FAIR" INDICATES FEW OR NO CLOUDS BELOW 12,000 FEET WITH NO
SIGNIFICANT WEATHER AND/OR OBSTRUCTIONS TO VISIBILITY.

WIZ001-002-006>008-014>016-023>028-221800-
NORTHWEST WISCONSIN

CITY           SKY/WX    TMP DP  RH WIND       PRES   REMARKS
SUPERIOR ARPT  CLOUDY    36  36 100 CALM      29.71R
ASHLAND        FOG       35  35 100 N5        29.69R VSB 3/4 WCI  31
HAYWARD        CLOUDY    36  34  92 VRB3      29.67R FOG
SIREN          CLOUDY    36  36  99 N7        29.70S WCI  30
CUMBERLAND     CLOUDY    34  32  93 NW3       29.68R
RICE LAKE      CLOUDY    35  35  99 CALM      29.70R
CHETEK         CLOUDY    35  35 100 CALM      29.68S FOG
LADYSMITH      CLOUDY    35  35  99 NW3       29.68R FOG
EAU CLAIRE     CLOUDY    36  35  96 NW5       29.67S WCI  32
MENOMONIE        N/A    N/A N/A N/A MISG        N/A
NEW RICHMOND   CLOUDY    35  35 100 NW5       29.70S FOG     WCI  31
OSCEOLA        CLOUDY    36  36 100 NW5       29.74R WCI  32
$$

WIZ003>005-009-010-017-018-221800-
NORTH CENTRAL WISCONSIN

CITY           SKY/WX    TMP DP  RH WIND       PRES   REMARKS
MANITOWISH WTR CLOUDY    34  34 100 NW5       29.62S FOG     WCI  30
ARBOR VITAE    CLOUDY    37  36  98 NW5       29.62S FOG     WCI  33
WOODRUFF       CLOUDY    37  36  98 NW5       29.62S FOG     WCI  33
RHINELANDER    FOG       36  35  96 CALM      29.62S VSB 1/4
EAGLE RIVER    CLOUDY    36  36 100 CALM      29.62R
LAND O LAKES   CLOUDY    37  37 100 CALM      29.63R
PHILLIPS       CLOUDY    34  34 100 NW3       29.64R FOG
TOMAHAWK       CLOUDY    36  35  96 W3        29.63F
MEDFORD        CLOUDY    34  34  99 CALM      29.64R FOG
MERRILL        CLOUDY    36  36 100 CALM        N/A
$$

WIZ029-030-035-036-043>047-221800-
CENTRAL WISCONSIN

CITY           SKY/WX    TMP DP  RH WIND       PRES   REMARKS
WAUSAU         CLOUDY    35  35 100 W5        29.63S FOG     WCI  31
MOSINEE        CLOUDY    36  36 100 W3        29.65R FOG
MARSHFIELD     FOG       35  34  96 W5        29.64R VSB 1/4 WCI  31
STEVENS POINT  CLOUDY    34  34 100 CALM      29.66R FOG
WAUPACA        CLOUDY    38  37  97 CALM      29.66R FOG
WAUTOMA        FOG       38  38 100 CALM      29.66  VSB 1/4
WISC RAPIDS    CLOUDY    36  36 100 NW3       29.66R
CAMP DOUGLAS   CLOUDY    37  37 100 W7        29.66R FOG     WCI  32
$$

WIZ011>013-019>022-031-037>040-048>050-221800-
NORTHEAST WISCONSIN

CITY           SKY/WX    TMP DP  RH WIND       PRES   REMARKS
ANTIGO         FOG       34  34 100 CALM      29.63R VSB 1
SHAWANO        CLOUDY    38  37  96 CALM      29.65S FOG
OCONTO         CLOUDY    36  36  99 W3        29.64S VSB 1
STURGEON BAY   FOG       38  38 100 W3        29.65S VSB 1/4
GREEN BAY      FOG       38  38 100 SW5       29.65S VSB 3/4 WCI  34
MANITOWOC      CLOUDY    39  39 100 MISG      29.66R FOG
APPLETON       FOG       37  37 100 VRB6      29.63R VSB 1/4 WCI  33
CLINTONVILLE   FOG       36  36 100 SW3       29.65R VSB 1/4
OSHKOSH        FOG       37  37 100 S5        29.65S VSB 1/4 WCI  33
$$

WIZ032>034-041-042-053>061-221800-
SOUTHWEST WISCONSIN

CITY           SKY/WX    TMP DP  RH WIND       PRES   REMARKS
LA CROSSE      CLOUDY    40  36  86 CALM      29.68S FOG
SPARTA         CLOUDY    35  35 100 W3        29.68S FOG
VIROQUA        CLOUDY    35  35 100 NW6       29.66R VSB<1/4 WCI  30
BOSCOBEL       CLOUDY    39  37  92 CALM      29.68R FOG
PRAIRIE DU CHI CLOUDY    36  35  96 CALM      29.69R FOG
PLATTEVILLE    CLOUDY    37  37 100 SW5       29.67S WCI  34
$$

WIZ056-057-062-063-064-067-068-221800-
SOUTH CENTRAL WISCONSIN

CITY           SKY/WX    TMP DP  RH WIND       PRES   REMARKS
REEDSBURG      CLOUDY    37  37 100 NW5       29.66S FOG     WCI  34
BARABOO/DELLS  CLOUDY    37  37  99 W5        29.65S FOG     WCI  33
LONE ROCK      CLOUDY    38  36  92 W5        29.68R FOG     WCI  34
MINERAL POINT  CLOUDY    37  37 100 W5        29.66S FOG     WCI  34
MADISON        CLOUDY    39  37  92 CALM      29.66F FOG
MIDDLETON      CLOUDY    40  40 100 NW3       29.66S
WATERTOWN      FOG       37  37 100 CALM      29.66S VSB 1
MONROE         CLOUDY    37  37 100 CALM      29.65S
JANESVILLE     CLOUDY    37  37 100 NW3       29.66S FOG
$$

WIZ051-052-058>065-066-070>072-221800-
SOUTHEAST WISCONSIN

CITY           SKY/WX    TMP DP  RH WIND       PRES   REMARKS
MILWAUKEE      CLOUDY    45  40  82 NW5       29.65F
WAUKESHA       CLOUDY    37  37 100 SW2       29.66  FOG
MILWAUKEE/TIMM CLOUDY    43  37  81 CALM      29.66S
RACINE         CLOUDY    44  39  82 NW6       29.66F
KENOSHA        CLOUDY    43  40  89 N5        29.65S FOG
FOND DU LAC    CLOUDY    39  36  89 SW3       29.66R FOG
SHEBOYGAN      CLOUDY    41  39  93 W7        29.65S
WEST BEND      CLOUDY    41  39  93 CALM      29.65F
JUNEAU         FOG       37  37  99 SW3       29.67S VSB 1/4
$$

LSZ147-162-221800-
LAKE SUPERIOR

STATION/POSITION TIME  TEMP    WIND        PRES    WAVE
                       AIR SEA DIR/SP/G            HT/PER
                 (UTC) (F)     (DEG/KT/KT) (MB)    (FT/S)
DEVILS ISLAND    1700   36     360/  6/  7 1005.8R
PORT WING        1640   35     330/  2/  3 1005.8R
SAXON HARBOR     1640   34     310/  3/  7 1004.7R
$$

LMZ867-665-643>646-221800-
LAKE MICHIGAN

STATION/POSITION TIME  TEMP    WIND        PRES    WAVE
                       AIR SEA DIR/SP/G            HT/PER
                 (UTC) (F)     (DEG/KT/KT) (MB)    (FT/S)
NORTHPORT PIER   1640   35        CALM     1004.1S
SISTER BAY       1635   39        CALM       N/A
KEWAUNEE LAKESHO 1648   38     270/  2/  5 1003.7R
SHEBOYGAN LAKESH 1700   42     260/  4/  4 1004.1F
PORT WASHINGTON  1630   41        CALM     1005.8R
KENOSHA   LAKESH 1700   42        CALM     1004.4
$$

TC  - TEMPERATURE IN CELSIUS
VSB - VISIBILITY IN STATUTE MILES
WCI - WIND CHILL INDEX
HX  - HEAT INDEX





USA.gov is the U.S. government's official web portal to all federal, state and local government web resources and services.